Showing default

ALISIO-1, 58562

Orbit data source: Space-Track

ALISIO-1, 58562 is a payload satellite owned by IAC (ES) in SSO that was launched on Fri, 01 Dec 2023 UTC via an FALCON 9 launch vehicle from the Air Force Western Test Range (AFWTR). Payload-class satellites include a variety of spacecraft equipped with specific instruments for various scientific and technological missions. These include communications satellites like Starlink; space stations such as the ISS; scientific satellites like the Hubble; Earth observation satellites from companies like Planet Labs, Umbra, and HawkEye 360; GPS; miniature CubeSats for education and research; and military/defense satellites.

Loading next visibility...
Identifier
58562, 2023-185M
Orbit
SSO
Country
Flag of ESES / SPN
Related business
Manufacturer
IAC
Mission
Operational Amateur Imaging
Bus & Motor
CUBESAT 6U, Unknown motor
Mass
10 kg wet, 10 kg dry
Launch date (UTC)
2023-12-01 (3 years ago)
Launch vehicle
FALCON 9
Launch site
Air Force Western Test Range (AFWTR)
Object type
Payload
Rocket body
Debris
Shape & HBR
Box, 1.0 m
Radar Cross Section
0.080 m², Medium (>0.1 m² and < 1m²)

Expand to show TLE details & history
Last TLE update: 8 hours ago

TLE from 8 hours ago
0 ALISIO-1
1 58562U 23185M   26235.91769921  .00002748  00000-0  14055-3 0  9996
2 58562  97.5329 308.9041 0007898  84.3636 275.8498 15.17468464148822
Epoch: 2026-08-23T22:01Z
TLE epoch observation values (Epoch: 2026-08-23T22:01:29.211Z)
Latitude
-0.00003°
Longitude
6.32552°
Altitude
516.027 km
Speed
7.606 km/s
True Right ascension
20h 35m 36s
True Declination
0° 00' 00"
Sunlit
Object was in full shadow at epoch
Visualization orbit readout
Latitude
Unknown
Longitude
Unknown
Altitude
Unknown
Speed
Unknown
Apparent Right ascension
Unknown
Apparent Declination
Unknown
Sunlit
N/A
Visualization observer readout
Local Sidereal Time
20:55:44
Azimuth
Unknown
Elevation
Unknown
Doppler factor
Unknown
Orbital elements
Apogee altitude
515.91 km
Perigee altitude
505.029 km
Semi-major axis
6,888.606 km
Eccentricity
0.00079
Inclination
97.5329°
RAAN
308.9041°
Arg. of periapsis
84.3636°
True anomaly
275.75976°
Mean anomaly
275.8498°
Eccentric anomaly
275.80478°
Mean motion
3.79617 °/min
Orbital period
94.83 mins
BSTAR
0.00014055
Loading maneuver chart data...
Computing Atmospheric mass density...
Loading historical data...
Loading historical data...
Loading historical data...
Loading historical data...
Loading historical data...
Loading historical data...
Loading historical data...

Documentation

Showing up to 5 results
|